Weather History for Casper, WY

Change the Weather History Date:

Friday, April 12, 2013

  Actual Average Record
Temperature  
Mean Temperature 37 °F 42 °F  
Max Temperature 45 °F 56 °F 75 °F (1992)
Min Temperature 28 °F 28 °F -6 °F (1997)
Degree Days  
Heating Degree Days 28 23  
Month to date heating degree days 334 296  
Since 1 July heating degree days 6345 6669  
Cooling Degree Days 0 0  
Month to date cooling degree days 0 0  
Year to date cooling degree days 0 0  
Moisture  
Dew Point 29 °F    
Average Humidity 71    
Maximum Humidity 92    
Minimum Humidity 49    
Precipitation  
Precipitation 0.14 in 0.04 in 0.31 in (1945)
Month to date precipitation 1.22 0.44  
Year to date precipitation 2.84 2.34  
Snow  
Snow 2.00 in 0.50 in - ()
Month to date snowfall 17.2 5.2  
Since 1 July snowfall 60.4 65.5  
Snow Depth 5.00 in    
Sea Level Pressure  
Sea Level Pressure 29.94 in    
Wind  
Wind Speed 7 mph (North)    
Max Wind Speed 22 mph    
Max Gust Speed 24 mph    
Visibility 7 miles    
Events Fog , Snow    
T = Trace of Precipitation, MM = Missing Value Source: NWS Daily Summary

Daily Weather History Graph

Daily Weather History Graph

Search for Another Location

Airport:

Trip Planner

Search our weather history database for the weather conditions in past years. The results will help you decide how hot, cold, wet, or windy it might be!

Date:

Astronomy

Apr. 12, 2013 Rise Set
Actual Time 6:28 AM MDT 7:45 PM MDT
Civil Twilight 5:59 AM MDT 8:14 PM MDT
Nautical Twilight 5:24 AM MDT 8:49 PM MDT
Astronomical Twilight 4:47 AM MDT 9:27 PM MDT
Moon 7:37 AM MDT (4/12) 10:22 PM MDT (4/12)
Length of Visible Light 14h 15m
Length of Day
13h 16m
Waxing Crescent, 5% of the Moon is Illuminated
Apr 12
Waxing Crescent
Apr 18
First Quarter
Apr 25
Full
May 2
Last Quarter
May 9
New

Hourly Weather History & Observations

Time (MDT) Temp. Windchill Dew Point Humidity Pressure Visibility Wind Dir Wind Speed Gust Speed Precip Events Conditions
12:53 AM 33.1 °F 28.7 °F 30.0 °F 89% 29.89 in 10.0 mi NNW 4.6 mph - 0.00 in   Overcast
1:53 AM 33.1 °F - 30.9 °F 92% 29.89 in 10.0 mi Calm Calm - 0.00 in   Overcast
2:53 AM 32.0 °F - 30.0 °F 92% 29.87 in 10.0 mi Calm Calm - N/A   Overcast
3:53 AM 32.0 °F - 30.0 °F 92% 29.87 in 10.0 mi Calm Calm - N/A   Overcast
4:53 AM 32.0 °F 27.5 °F 28.9 °F 88% 29.86 in 10.0 mi NW 4.6 mph - N/A   Overcast
5:37 AM 32.0 °F 25.6 °F 30.2 °F 93% 29.86 in 2.5 mi NNW 6.9 mph - 0.00 in Snow Light Snow
5:53 AM 32.0 °F 25.6 °F 30.9 °F 96% 29.87 in 1.5 mi NW 6.9 mph - 0.01 in Snow Light Snow
6:14 AM 32.0 °F 25.6 °F 30.2 °F 93% 29.86 in 1.0 mi NNW 6.9 mph - 0.02 in Snow Light Snow
6:53 AM 32.0 °F 27.5 °F 30.9 °F 96% 29.90 in 0.5 mi NW 4.6 mph - 0.05 in Fog , Snow Snow
7:23 AM 32.0 °F 28.7 °F 30.2 °F 93% 29.88 in 0.5 mi NNW 3.5 mph - 0.04 in Fog , Snow Snow
7:33 AM 32.0 °F 28.7 °F 30.2 °F 93% 29.89 in 2.0 mi NNW 3.5 mph - 0.04 in Snow Light Snow
7:41 AM 32.0 °F 28.7 °F 30.2 °F 93% 29.90 in 1.0 mi NNW 3.5 mph - 0.04 in Snow Light Snow
7:49 AM 32.0 °F 27.5 °F 30.2 °F 93% 29.91 in 0.5 mi NNW 4.6 mph - 0.05 in Fog , Snow Snow
7:53 AM 32.0 °F 24.8 °F 30.9 °F 96% 29.94 in 0.5 mi NNE 8.1 mph - 0.05 in Fog , Snow Snow
8:11 AM 32.0 °F 23.0 °F 30.2 °F 93% 29.92 in 0.5 mi North 11.5 mph - 0.02 in Fog , Snow Snow
8:27 AM 32.0 °F 24.2 °F 30.2 °F 93% 29.93 in 1.0 mi North 9.2 mph - 0.03 in Snow Light Snow
8:41 AM 32.0 °F 20.8 °F 28.4 °F 87% 29.93 in 4.0 mi North 17.3 mph 21.9 mph 0.03 in Snow Light Snow
8:50 AM 32.0 °F 22.5 °F 28.4 °F 87% 29.93 in 6.0 mi North 12.7 mph 21.9 mph 0.03 in   Overcast
8:53 AM 32.0 °F 22.5 °F 28.9 °F 88% 29.97 in 7.0 mi North 12.7 mph 21.9 mph 0.03 in   Overcast
9:53 AM 33.1 °F 26.1 °F 28.0 °F 82% 29.99 in 10.0 mi NE 8.1 mph - N/A   Overcast
10:53 AM 34.0 °F 29.8 °F 28.9 °F 82% 30.03 in 10.0 mi North 4.6 mph - 0.00 in   Overcast
11:15 AM 33.8 °F - 28.4 °F 81% 30.00 in 10.0 mi Calm Calm - N/A   Overcast
11:53 AM 35.1 °F 31.0 °F 30.0 °F 82% 30.04 in 10.0 mi East 4.6 mph - 0.00 in   Overcast
12:17 PM 33.8 °F - 28.4 °F 81% 29.99 in 5.0 mi Calm Calm - 0.00 in Snow Light Snow
12:45 PM 33.8 °F 27.7 °F 28.4 °F 81% 29.99 in 10.0 mi South 6.9 mph - 0.00 in   Overcast
12:53 PM 35.1 °F 29.3 °F 30.0 °F 82% 30.03 in 10.0 mi SSE 6.9 mph - 0.00 in   Overcast
1:53 PM 37.9 °F 32.1 °F 30.9 °F 76% 30.00 in 10.0 mi SW 8.1 mph - N/A   Overcast
2:53 PM 39.0 °F 31.4 °F 28.9 °F 67% 29.99 in 5.0 mi NNW 12.7 mph - N/A   Haze
2:57 PM 37.4 °F 32.8 °F 28.4 °F 70% 29.97 in 2.5 mi NNE 5.8 mph - 0.00 in Snow Light Snow
3:05 PM 39.2 °F 37.0 °F 30.2 °F 70% 29.96 in 10.0 mi NE 3.5 mph - 0.00 in   Unknown
3:12 PM 41.0 °F 39.0 °F 30.2 °F 65% 29.96 in 10.0 mi Variable 3.5 mph - 0.00 in   Mostly Cloudy
3:23 PM 42.8 °F 41.1 °F 28.4 °F 57% 29.95 in 10.0 mi Variable 3.5 mph - 0.00 in   Scattered Clouds
3:53 PM 43.0 °F 38.8 °F 26.1 °F 51% 29.95 in 10.0 mi WNW 6.9 mph - 0.00 in   Clear
4:53 PM 43.0 °F 38.2 °F 25.0 °F 49% 29.94 in 10.0 mi North 8.1 mph - N/A   Mostly Cloudy
5:53 PM 41.0 °F 33.9 °F 28.0 °F 60% 29.94 in 10.0 mi NE 12.7 mph - N/A   Clear
6:53 PM 39.0 °F 31.8 °F 28.0 °F 65% 29.92 in 10.0 mi NE 11.5 mph - N/A   Clear
7:53 PM 36.0 °F 29.6 °F 27.0 °F 70% 29.93 in 10.0 mi ENE 8.1 mph - N/A   Clear
8:53 PM 33.1 °F - 27.0 °F 78% 29.94 in 10.0 mi North - - N/A   Clear
9:53 PM 30.9 °F 22.2 °F 26.1 °F 82% 29.95 in 10.0 mi East 10.4 mph - N/A   Clear
10:53 PM 30.0 °F 23.2 °F 25.0 °F 82% 29.93 in 10.0 mi SE 6.9 mph - N/A   Clear
11:53 PM 28.9 °F 25.2 °F 24.1 °F 82% 29.90 in 10.0 mi ESE 3.5 mph - N/A   Clear